Tracking 29892 objects as of 21-Nov-2024
HD Live streaming from Space Station
objects crossing your sky now

STARLINK-5316

Track STARLINK-5316 now!
10-day predictions
STARLINK-5316 is classified as:


NORAD ID: 55305
Int'l Code: 2023-010AN
Perigee: 577.2 km
Apogee: 581.2 km
Inclination: 70.0 °
Period: 96.1 minutes
Semi major axis: 6950 km
RCS: Unknown
Launch date: January 19, 2023
Source: United States (US)
Launch site: AIR FORCE WESTERN TEST RANGE (AFWTR)
Your satellite tracking list
Your tracking list is empty




NASA's NSSDC Master Catalog

Two Line Element Set (TLE):
1 55305U 23010AN  24325.88820971  .00002360  00000-0  20550-3 0  9999
2 55305  69.9980 139.2669 0002906 277.0764  83.0065 14.98329493102307
Source of the keplerian elements: AFSPC